Погода в Усадах

Россия / Республика Татарстан     55°40′44″N   49°13′09″E
темп.,
°C
ветер,
м/с
пор.,
м/с
влажн.,
%
обл.,
%
осадки,
мм/ч
давл.,
гПа
погр.,
м
2 марта, вт
вт200:00−12ююз5109597 0.0 1013275
03:00−9юз6129598 0.4 1009433
06:00−5юз61395100 2.3 1003636
09:00−2зюз81496100 3.8 1000671
12:000з61299100 0.9 999643
15:000зсз61193100 1.6 998775
18:00−2з4109271 0.1 998269
21:00−4з5119467 0.1 999224
3 марта, ср
ср300:00−7з499621 0.0 1000155
03:00−7з379735 0.0 1001108
06:00−7з389782 0.1 1000177
09:00−4зсз599491 0.2 1002589
12:00−4сз6990100 0.2 1002769
15:00−4сз71089100 0.5 1003862
18:00−6сз51092100 0.1 1004742
21:00−8зсз4109398 0.1 1005288
4 марта, чт
чт400:00−11зюз489568 0.0 1004140
03:00−8зюз5119583 0.2 1003410
06:00−6зюз61293100 0.3 1001484
09:00−4зюз71292100 0.4 1000702
12:00−2юз7119299 0.1 997789
15:00−1юз81396100 1.5 994968
18:000зюз81588100 0.4 9931082
21:00−2з61384100 0.5 995565
5 марта, пт
пт500:00−5з41091100 0.0 997260
03:00−7сз2295100 0.0 99826
06:00−8с3596100 0.4 999158
09:00−8с3591100 0.9 1000263
12:00−7ссз4686100 0.0 1003435
15:00−6сз468667 0.0 1006693
18:00−9зсз339499 0.1 100961
21:00−12зсз239699 0.2 101145
6 марта, сб
сб600:00−15зсз239787 0.0 101321
03:00−17з129855 0.1 101420
06:00−17ююз229619 0.0 101420
09:00−14ю239324 0.0 1013117
12:00−9ююз349189 0.0 1012320
15:00−8ююз349387 0.1 1011358
18:00−11юз339692 0.1 101048
21:00−11зсз489595 0.2 1010237